EPSILON R/B (43153 NORAD) Tracking and Keplerian Element Data

This shows tracking and keplerian element data for the satellite.

Feedback or suggestion? Click here.




ElementValue
Catalog43153
NameEPSILON R/B
Epoch Orbit437
Epoch Day46.58172802
Epoch Year2018
RAAN52.1226
Inclination97.3734
Eccentricity0.0030467
Argument of Perigee113.1373
Mean Anonmoly247.3077
Mean Motion15.25703578
Decay Rate7.93E-06
L11 43153U 18007B 18046.58172802 .00000793 00000-0 33581-4 0 9997
L22 43153 97.3734 52.1226 0030467 113.1373 247.3077 15.25703578 4375



Live tracking and technical data element details for EPSILON R/B (NORAD 43153). EPSILON R/B can be tracked NOW for your location showing map with azimuth and elevation plus other details from your city location.







IsCatalogInMostPopularTable: catalog: 43153, numindb: 370
Update: records affected: 1



GetName: 43153 EPSILON R/B

Hit Count: updated at: Sat, 07 Mar 2026 06:21:34 GMT